Flag for Germany Weather past 2 weeks in Neu-Ulm, Bavaria, Germany

Now
61 °F

Refreshingly cool.


Feels Like: 61 °F
Forecast: 47 / 67 °F
Wind: 10 mph from East

Location: Laupheim Airport

Current Time: May 24, 2015 at 5:37:11 PM

Latest Report: May 24, 2015 at 4:20 PM


Visibility: N/A

Pressure: 30.07 "Hg

Humidity: 59%

Dew point: 46 °F

Location of Neu-UlmLocation

Historic Weather in Neu-Ulm — Graph

°F

Neu-Ulm temperature yesterday

Maximum temperature yesterday: 61 °F (at 2:20 PM)
Minimum temperature yesterday: 45 °F (at 4:20 AM)
Average temperature yesterday: 54 °F

Past Weeks' High & Low Weather Summary

 TemperatureHumidityPressure
High81 °F (May 12, 4:20 PM)100% (May 11, 5:20 AM)30.36 "Hg (May 11, 5:20 AM)
Low39 °F (May 22, 4:20 AM)34% (May 12, 2:20 PM)29.77 "Hg (May 18, 5:20 PM)
Average56 °F74%30.09 "Hg
* Reported May 9 4:20 PM — May 24 4:20 PM, Neu-Ulm, Weather by CustomWeather, © 2015

Note: Actual official high and low records may vary slightly from our data, if they occured in-between our weather recording intervals... More about our weather records

Advertising

Neu-Ulm weather history for previous 24 hours

 ConditionsComfort  
Time TempWeatherWind HumidityBarometerVisibility
4:20 PM
Sun, May 24
61 °FRefreshingly cool.10 mph59%30.07 "HgN/A
3:20 PM61 °FRefreshingly cool.8 mph55%30.07 "HgN/A
2:20 PM63 °FMild.9 mph56%30.07 "HgN/A
1:20 PM61 °FRefreshingly cool.9 mph59%30.09 "HgN/A
12:20 PM59 °FCool.7 mph63%30.09 "HgN/A
11:20 AM57 °FCool.3 mph67%30.09 "Hg6 mi
10:20 AM55 °FCool.1 mph67%30.09 "Hg6 mi
9:20 AM54 °FCool.2 mph77%30.09 "Hg5 mi
8:20 AM52 °FCool.No wind88%30.07 "Hg4 mi
7:20 AM50 °FCool.No wind88%30.07 "Hg4 mi
6:20 AM48 °FCool.1 mph94%30.07 "Hg4 mi
5:20 AM50 °FCool.No wind82%30.04 "Hg4 mi
4:20 AM50 °FCool.5 mph88%30.07 "Hg4 mi
3:20 AM50 °FCool.3 mph82%30.07 "Hg4 mi
2:20 AM52 °FCool.1 mph77%30.07 "Hg5 mi
1:20 AM52 °FCool.5 mph77%30.07 "Hg5 mi
12:20 AM54 °FCool.6 mph72%30.07 "Hg5 mi
11:20 PM
Sat, May 23
55 °FCool.2 mph67%30.07 "Hg5 mi
10:20 PM55 °FCool.1 mph67%30.07 "Hg5 mi
9:20 PM55 °FCool.2 mph63%30.04 "Hg6 mi
8:20 PM59 °FRefreshingly cool.3 mph55%30.04 "Hg6 mi
7:20 PM59 °FRefreshingly cool.3 mph55%30.04 "Hg6 mi
6:20 PM61 °FRefreshingly cool.3 mph45%30.04 "HgN/A
5:20 PM61 °FRefreshingly cool.7 mph48%30.04 "HgN/A
Weather by CustomWeather, © 2015

See weather overviewHow to use our weather pages